TimeHST,TemperatureF,Dew PointF,Humidity,Sea Level PressureIn,VisibilityMPH,Wind Direction,Wind SpeedMPH,Gust SpeedMPH,PrecipitationIn,Events,Conditions,WindDirDegrees,DateUTC
12:40 AM,71.6,66.2,83,30.04,10.0,Calm,Calm,-,N/A,,Partly Cloudy,0,2012-12-31 10:40:00
12:54 AM,71.1,66.9,87,30.04,10.0,Calm,Calm,-,N/A,,Partly Cloudy,0,2012-12-31 10:54:00
1:51 AM,68.0,64.4,88,30.03,10.0,Calm,Calm,-,N/A,,Mostly Cloudy,0,2012-12-31 11:51:00
1:54 AM,69.1,64.9,87,30.03,10.0,Calm,Calm,-,N/A,,Mostly Cloudy,0,2012-12-31 11:54:00
2:07 AM,69.8,64.4,83,30.02,10.0,Calm,Calm,-,N/A,,Overcast,0,2012-12-31 12:07:00
2:43 AM,69.8,66.2,88,30.01,10.0,Calm,Calm,-,N/A,,Mostly Cloudy,0,2012-12-31 12:43:00
2:50 AM,69.8,66.2,88,30.01,10.0,Calm,Calm,-,N/A,,Overcast,0,2012-12-31 12:50:00
2:54 AM,69.1,66.0,90,30.02,10.0,Calm,Calm,-,N/A,,Overcast,0,2012-12-31 12:54:00
3:22 AM,69.8,64.4,83,30.01,10.0,Calm,Calm,-,N/A,,Mostly Cloudy,0,2012-12-31 13:22:00
3:54 AM,66.0,63.0,90,30.01,10.0,Calm,Calm,-,N/A,,Clear,0,2012-12-31 13:54:00
4:54 AM,66.9,64.0,90,30.02,10.0,Calm,Calm,-,N/A,,Clear,0,2012-12-31 14:54:00
5:54 AM,64.9,63.0,93,30.03,10.0,Calm,Calm,-,N/A,,Clear,0,2012-12-31 15:54:00
6:54 AM,64.0,62.1,93,30.05,10.0,Calm,Calm,-,N/A,,Clear,0,2012-12-31 16:54:00
7:54 AM,69.1,64.9,87,30.07,10.0,ENE,3.5,-,N/A,,Clear,60,2012-12-31 17:54:00
8:54 AM,73.9,66.9,79,30.08,10.0,Calm,Calm,-,N/A,,Clear,0,2012-12-31 18:54:00
9:54 AM,78.1,66.0,66,30.08,10.0,West,3.5,-,N/A,,Partly Cloudy,280,2012-12-31 19:54:00
10:54 AM,82.9,64.0,53,30.07,10.0,North,6.9,-,N/A,,Scattered Clouds,350,2012-12-31 20:54:00
11:54 AM,80.1,66.0,62,30.06,10.0,North,11.5,-,N/A,,Scattered Clouds,350,2012-12-31 21:54:00
12:54 PM,80.1,66.9,64,30.04,10.0,North,8.1,-,N/A,,Clear,350,2012-12-31 22:54:00
1:54 PM,79.0,66.9,66,30.02,10.0,North,10.4,-,N/A,,Scattered Clouds,360,2012-12-31 23:54:00
2:54 PM,78.1,66.0,66,30.02,10.0,North,10.4,-,N/A,,Scattered Clouds,360,2013-01-01 00:54:00
3:54 PM,79.0,66.0,64,30.02,10.0,NNE,6.9,-,N/A,,Clear,20,2013-01-01 01:54:00
4:54 PM,75.9,66.0,71,30.04,10.0,North,6.9,-,N/A,,Scattered Clouds,10,2013-01-01 02:54:00
5:54 PM,75.0,66.9,76,30.06,10.0,North,5.8,-,N/A,,Scattered Clouds,360,2013-01-01 03:54:00
6:54 PM,73.9,68.0,82,30.08,10.0,NNW,6.9,-,N/A,,Overcast,340,2013-01-01 04:54:00
7:07 PM,73.4,68.0,83,30.07,10.0,NNW,5.8,-,N/A,,Overcast,340,2013-01-01 05:07:00
7:21 PM,73.4,69.8,88,30.08,10.0,NNW,8.1,-,N/A,,Overcast,340,2013-01-01 05:21:00
7:25 PM,73.4,69.8,88,30.08,10.0,North,8.1,-,N/A,,Mostly Cloudy,350,2013-01-01 05:25:00
7:36 PM,73.4,69.8,88,30.08,10.0,NNW,5.8,-,N/A,,Overcast,330,2013-01-01 05:36:00
7:45 PM,73.4,69.8,88,30.08,10.0,North,6.9,-,N/A,,Overcast,350,2013-01-01 05:45:00
7:54 PM,73.9,69.1,85,30.09,10.0,North,5.8,-,N/A,,Overcast,360,2013-01-01 05:54:00
8:19 PM,73.4,68.0,83,30.10,10.0,North,3.5,-,N/A,,Overcast,350,2013-01-01 06:19:00
8:30 PM,73.4,66.2,78,30.10,10.0,North,3.5,-,N/A,,Overcast,10,2013-01-01 06:30:00
8:49 PM,73.4,66.2,78,30.11,10.0,North,4.6,-,N/A,,Mostly Cloudy,350,2013-01-01 06:49:00
8:54 PM,73.9,66.9,79,30.12,10.0,North,4.6,-,N/A,,Overcast,350,2013-01-01 06:54:00
9:04 PM,73.4,68.0,83,30.11,8.0,North,4.6,-,N/A,,Overcast,360,2013-01-01 07:04:00
9:26 PM,73.4,68.0,83,30.11,10.0,NNW,8.1,-,N/A,,Overcast,340,2013-01-01 07:26:00
9:54 PM,73.0,68.0,84,30.12,10.0,North,8.1,-,N/A,,Mostly Cloudy,350,2013-01-01 07:54:00
10:11 PM,73.4,68.0,83,30.12,10.0,NNW,8.1,-,N/A,,Mostly Cloudy,340,2013-01-01 08:11:00
10:25 PM,73.4,69.8,88,30.11,10.0,NNW,8.1,-,N/A,,Mostly Cloudy,340,2013-01-01 08:25:00
10:54 PM,73.0,68.0,84,30.12,10.0,NNW,10.4,-,N/A,,Mostly Cloudy,340,2013-01-01 08:54:00
11:47 PM,73.4,68.0,83,30.11,10.0,NNW,9.2,-,N/A,,Overcast,340,2013-01-01 09:47:00
11:54 PM,73.0,68.0,84,30.11,10.0,North,8.1,-,N/A,,Overcast,350,2013-01-01 09:54:00